Location: NJAA Observatory
(40.6819°N, 74.8979°W)
Time: 01:31:38
(UTC-05:00)

Cosmos 2263 Rocket - Visible Passes

Search period start: 20 December 2014 00:00
Search period end: 30 December 2014 00:00
Orbit: 823 x 850 km, 71.0° (Epoch: 18 December)

Date Brightness Start Highest point End Pass type
(mag) Time Alt. Az. Time Alt. Az. Time Alt. Az.
20 Dec 4.8 03:28:03 13° NE 03:28:03 13° NE 03:30:27 10° ENE visible
20 Dec 2.3 05:09:48 31° NNW 05:12:41 78° ENE 05:18:21 10° SSE visible
20 Dec 3.6 18:14:40 10° SSE 18:17:27 20° ESE 18:17:27 20° ESE visible
20 Dec 4.0 19:56:56 10° SW 19:59:13 24° SW 19:59:13 24° SW visible
21 Dec 5.0 03:12:34 11° ENE 03:12:34 11° ENE 03:13:21 10° ENE visible
21 Dec 2.3 04:54:19 46° N 04:56:02 72° ENE 05:01:42 10° SSE visible
21 Dec 3.8 06:36:08 10° WNW 06:39:16 15° W 06:42:24 10° SW visible
21 Dec 3.4 17:58:18 10° SE 18:02:13 20° E 18:02:13 20° E visible
21 Dec 3.3 19:40:14 10° SW 19:43:59 40° WSW 19:43:59 40° WSW visible
22 Dec 2.4 04:38:56 63° NE 04:39:24 67° ENE 04:45:02 10° SSE visible
22 Dec 3.7 06:20:41 14° WNW 06:22:42 17° W 06:26:09 10° SW visible
22 Dec 3.5 17:41:58 10° SE 17:45:40 18° E 17:46:56 17° E visible
22 Dec 2.6 19:23:33 10° SW 19:28:42 58° W 19:28:42 58° W visible
23 Dec 2.8 04:23:36 55° ESE 04:23:36 55° ESE 04:28:22 10° SE visible
23 Dec 3.5 06:05:22 18° W 06:06:07 18° W 06:09:52 10° SW visible
23 Dec 3.7 17:25:40 10° SE 17:29:06 17° E 17:31:35 13° ENE visible
23 Dec 2.4 19:06:52 10° SW 19:12:24 64° WNW 19:13:20 55° NNW visible
24 Dec 3.5 04:08:20 35° SE 04:08:20 35° SE 04:11:41 10° SE visible
24 Dec 3.5 05:50:06 20° WSW 05:50:06 20° WSW 05:53:32 10° SW visible
24 Dec 3.8 17:09:24 10° SE 17:12:31 15° E 17:15:39 10° ENE visible
24 Dec 2.3 18:50:12 10° SSW 18:55:45 70° WNW 18:57:55 38° N visible
24 Dec 5.0 20:38:45 10° WNW 20:39:40 11° WNW 20:39:40 11° WNW visible
25 Dec 4.2 03:53:07 21° SE 03:53:07 21° SE 03:54:59 10° SE visible
25 Dec 3.7 05:34:53 18° SW 05:34:53 18° SW 05:37:10 10° SSW visible
25 Dec 2.3 18:33:32 10° SSW 18:39:07 76° WNW 18:42:25 26° NNE visible
25 Dec 4.8 20:21:37 10° WNW 20:24:04 13° NW 20:24:10 13° NW visible
26 Dec 4.8 03:37:56 12° SE 03:37:56 12° SE 03:38:17 10° SE visible
26 Dec 4.1 05:19:42 14° SW 05:19:42 14° SW 05:20:47 10° SSW visible
26 Dec 2.2 18:16:54 10° SSW 18:22:29 82° WNW 18:26:49 18° NNE visible
26 Dec 4.7 20:04:33 10° WNW 20:07:21 14° NW 20:08:34 13° NNW visible
27 Dec 2.2 18:00:16 10° SSW 18:05:51 89° WNW 18:11:10 12° NNE visible
27 Dec 4.6 19:47:32 10° W 19:50:38 15° NW 19:52:54 12° NNW visible
28 Dec 2.2 17:43:38 10° SSW 17:49:13 85° ESE 17:54:53 10° NNE visible
28 Dec 4.6 19:30:34 10° W 19:33:55 16° NW 19:37:09 10° NNW visible
29 Dec 2.2 17:27:01 10° SSW 17:32:36 79° ESE 17:38:15 10° NNE visible
29 Dec 4.6 19:13:37 10° W 19:17:13 17° NW 19:20:50 10° N visible
